Tracking 35048 objects as of 19-Aug-2026
HD Live streaming from Space Station
objects crossing your sky now

STARLINK-31971

Track STARLINK-31971 now!
10-day predictions
STARLINK-31971 is classified as:


NORAD ID: 59934
Int'l Code: 2024-106N
Launch date: June 1, 2024
Source: United States (US)
Launch site: AIR FORCE EASTERN TEST RANGE (AFETR)
Your satellite tracking list
Your tracking list is empty




NASA's NSSDC Master Catalog

Two Line Element Set (TLE):
1 59934U 24106N   26231.08089371  .00000916  00000-0  42813-4 0  9991
2 59934  43.0005 132.2228 0000761 256.6735 103.4032 15.27579740125279
Source of the keplerian elements: AFSPC